Tracking 29892 objects as of 21-Nov-2024
HD Live streaming from Space Station
objects crossing your sky now

DMSP 5D-2 F13 DEB

Track DMSP 5D-2 F13 DEB now!
10-day predictions


NORAD ID: 42283
Int'l Code: 1995-015GZ
Perigee: 478.1 km
Apogee: 486.7 km
Inclination: 98.6 °
Period: 94.1 minutes
Semi major axis: 6853 km
RCS: Unknown
Launch date: March 24, 1995
Source: United States (US)
Launch site: AIR FORCE WESTERN TEST RANGE (AFWTR)

Note: This is SATELLITE DEBRIS
Your satellite tracking list
Your tracking list is empty




NASA's NSSDC Master Catalog

Two Line Element Set (TLE):
1 42283U 95015GZ  24322.09969857  .00464761  00000-0  14968-1 0  9992
2 42283  98.6300  91.9817 0006282 257.2752 102.7783 15.30176476503725
Source of the keplerian elements: AFSPC